Zurück zum Katalog

STARLINK-31205

AktivKommunikationVLEO
NORAD 59046·PAYLOAD·🇺🇸 United States

Gestartet Feb 25, 2024 von Cape Canaveral Space Force Station

Loading…

Nächste Überflüge (nächste 24 Stunden)

TLE

AktuellSource: CelesTrak SupGP

Epoche: Sep 14, 2026, 22:41 UTC

1 59046C 24038Z   26257.94562500  .00019516  00000+0  70694-3 0  2571
2 59046  43.0039  34.8797 0001423 273.2860 349.5905 15.27566186    14

Verfolge STARLINK-31205 in Echtzeit mit AllMySat

Download on the App Store